Weather History for GMAD - May, 2014

Change the Weather History Date:

Thursday, May 29, 2014

  Actual Average Record
Temperature  
Mean Temperature 68 °F -  
Max Temperature 82 °F - - ()
Min Temperature 54 °F - - ()
Cooling Degree Days 3    
Growing Degree Days 18 (Base 50)    
Moisture  
Dew Point 54 °F    
Average Humidity 59    
Maximum Humidity 82    
Minimum Humidity 24    
Precipitation  
Precipitation 0.00 in - - ()
Sea Level Pressure  
Sea Level Pressure 29.94 in    
Wind  
Wind Speed 4 mph ()    
Max Wind Speed 12 mph    
Max Gust Speed -    
Visibility 6.0 miles    
Events      
T = Trace of Precipitation, MM = Missing Value Source: Averaged Metar Reports

Daily Weather History Graph

Daily Weather History Graph

Search for Another Location

Airport or City:

Trip Planner

Search our weather history database for the weather conditions in past years. The results will help you decide how hot, cold, wet, or windy it might be!

Date:

Astronomy

May. 29, 2014 Rise Set
Actual Time 6:37 AM WEST 8:33 PM WEST
Civil Twilight 6:10 AM WEST 9:00 PM WEST
Nautical Twilight 5:37 AM WEST 9:32 PM WEST
Astronomical Twilight 5:02 AM WEST 10:07 PM WEST
Moon 7:15 AM WEST (5/29) 9:15 PM WEST (5/29)
Length of Visible Light 14h 50m
Length of Day
13h 56m
New Moon, 0% of the Moon is Illuminated
May 29
New Moon
Jun 5
First Quarter
Jun 13
Full
Jun 19
Last Quarter
Jun 27
New

Hourly Weather History & Observations

Time (WEST) Temp. Heat Index Dew Point Humidity Pressure Visibility Wind Dir Wind Speed Gust Speed Precip Events Conditions
1:00 AM 63 °F - 54 °F 66% 30.00 in 6 mi Calm Calm - -  
1:00 AM 62.6 °F - 55.4 °F 77% 29.98 in - Calm Calm - N/A   Clear
2:00 AM 59.0 °F - 51.8 °F 77% 29.98 in - Calm Calm - N/A   Clear
3:00 AM 59.0 °F - 50.0 °F 72% 29.95 in - Calm Calm - N/A   Clear
4:00 AM 57 °F - 50 °F 70% 29.96 in 6 mi SW 2.3 mph - -  
4:00 AM 57.2 °F - 50.0 °F 77% 29.95 in - SW 2.3 mph - N/A   Clear
5:00 AM 57.2 °F - 50.0 °F 77% 29.95 in 6.2 mi Calm Calm - N/A   Scattered Clouds
7:00 AM 56 °F - 50 °F 75% 29.96 in 6 mi South 3.5 mph - -   Partly Cloudy
7:00 AM 55.4 °F - 50.0 °F 82% 29.95 in - South 3.5 mph - N/A   Clear
8:00 AM 60.8 °F - 55.4 °F 82% 29.95 in 6.2 mi Calm Calm - N/A   Scattered Clouds
9:00 AM 64.4 °F - 57.2 °F 77% 29.98 in - WSW 4.6 mph - N/A   Clear
10:00 AM 64 °F - 58 °F 74% 29.97 in 6 mi WSW 4.6 mph - -  
10:00 AM 64.4 °F - 57.2 °F 77% 29.95 in - WSW 4.6 mph - N/A   Clear
11:00 AM 69.8 °F - 57.2 °F 64% 29.95 in - WSW 6.9 mph - N/A   Clear
1:00 PM 78 °F - 55 °F 35% 29.94 in 6 mi West 11.5 mph - -  
1:00 PM 78.8 °F - 55.4 °F 44% 29.95 in - West 11.5 mph - N/A   Clear
2:00 PM 80.6 °F 80.3 °F 53.6 °F 39% 29.92 in - WSW 11.5 mph - N/A   Clear
4:00 PM 82 °F - 51 °F 24% 29.91 in 6 mi WSW 11.5 mph - -  
4:00 PM 82.4 °F - 51.8 °F 35% 29.89 in - WSW 11.5 mph - N/A   Clear
5:00 PM 82.4 °F - 50.0 °F 32% 29.89 in - WSW 11.5 mph - N/A   Clear
6:00 PM 80.6 °F 80.5 °F 55.4 °F 42% 29.89 in - West 11.5 mph - N/A   Clear
7:00 PM 79 °F - 53 °F 30% 29.88 in 6 mi West 11.5 mph - -  
7:00 PM 78.8 °F - 53.6 °F 42% 29.89 in - West 11.5 mph - N/A   Clear
8:00 PM 75.2 °F - 55.4 °F 50% 29.89 in - West 9.2 mph - N/A   Clear
9:00 PM 71.6 °F - 55.4 °F 57% 0.00 in - West 8.1 mph - N/A   Clear
10:00 PM 69 °F - 55 °F 51% 29.94 in 6 mi WNW 8.1 mph - -  
10:00 PM 71.6 °F - 53.6 °F 53% 29.92 in - WNW 6.9 mph - N/A   Clear
11:00 PM 66.2 °F - 55.4 °F 68% 29.95 in - West 3.5 mph - N/A   Clear